Location: Howard City Library
(37.4684°N, 96.2639°W)
Time: 00:29:48
(UTC+00:00)

STARLINK-21 - Pass Details

Date: 18 February 2020
Orbit: 529 x 530 km, 53.0° (Epoch: 09 April)

Event Time Altitude Azimuth Distance (km) Brightness Sun altitude
Rises 01:42:40 0° 239° (WSW) 2,656 8.1 -19.8°
Reaches altitude 10° 01:44:55 10° 244° (WSW) 1,770 7.1 -20.2°
Maximum altitude 01:48:50 52° 322° (NW) 661 4.2 -21.0°
Enters shadow 01:50:05 36° 15° (NNE) 844 4.4 -21.2°
